This demonstration page uses our WeatherBlox Daily Observations layout. Learn more.

Left ArrowRight Arrow

41.86663, -103.66717

Hourly Observations for March 13, 2020

Temp ( °F °C ) Dew Point ( °F °C ) Humidity (%) Winds ( mph kmh ) Pressure ( in mb ) Visibility ( mi km ) Precip ( " mm )
12:53 am 00:53 Cloudy 32 undefined 22 -5.6 66 66 NNE 5 7 30.16 1022 10 16 N/A
1:53 am 01:53 Cloudy 32 undefined 23 -5 69 69 N N/A 30.17 1022 10 16 N/A
2:53 am 02:53 Cloudy 32 undefined 22 -5.6 66 66 E 7 11 30.17 1022 10 16 N/A
3:53 am 03:53 Cloudy 33 0.6 21 -6.1 61 61 ESE 7 11 30.16 1021 10 16 N/A
4:53 am 04:53 Cloudy 33 0.6 21 -6.1 61 61 E 8 13 30.15 1021 10 16 N/A
5:53 am 05:53 Cloudy 34 1.1 19 -7.2 54 54 E 8 13 30.17 1022 10 16 N/A
6:53 am 06:53 Cloudy 34 1.1 20 -6.7 56 56 ESE 12 19 30.17 1022 10 16 N/A
7:53 am 07:53 Cloudy 34 1.1 23 -5 64 64 ESE 15 24 30.18 1022 10 16 N/A
8:53 am 08:53 Cloudy 34 1.1 21 -6.1 59 59 E 14 22 30.18 1022 10 16 N/A
9:53 am 09:53 Cloudy 35 1.7 21 -6.1 57 57 ESE 18 30 30.18 1022 10 16 N/A
10:53 am 10:53 Cloudy 36 2.2 22 -5.6 57 57 ESE 18 30 30.18 1022 10 16 N/A
11:53 am 11:53 Cloudy 36 2.2 21 -6.1 55 55 SE 21 33 30.17 1022 10 16 N/A
12:53 pm 12:53 Cloudy 36 2.2 24 -4.4 62 62 SE 29 46 30.12 1020 10 16 N/A
1:38 pm 13:38 Windy with Snow Likely 33 0.6 29 -1.7 85 85 ESE 22 35 30.16 1021 2 3 0.00 0.00
1:46 pm 13:46 Windy with Snow Likely 32 undefined 29 -1.7 88 88 ESE 23 37 30.17 1022 2 2 0.00 0.00
1:53 pm 13:53 Windy with Snow Likely 32 undefined 30 -1.1 92 92 ESE 22 35 30.13 1020 2 3 0.00 0.00
2:01 pm 14:01 Windy with Snow Likely 32 undefined 30 -1.1 92 92 ESE 23 37 30.16 1021 3 5 0.00 0.00
2:27 pm 14:27 Windy with Snow Likely 32 undefined 30 -1.1 92 92 ESE 21 33 30.15 1021 3 4 0.00 0.00
2:42 pm 14:42 Windy with Snow Likely 32 undefined 30 -1 93 93 ESE 22 35 30.14 1021 1 1 N/A
2:53 pm 14:53 Windy with Snow Likely 31 -0.6 30 -1.1 96 96 ESE 22 35 30.10 1019 1 1 0.01 0.25
3:11 pm 15:11 Windy with Snow Likely 32 undefined 30 -1.1 92 92 SE 21 33 30.15 1021 1 2 0.00 0.00
3:13 pm 15:13 Windy with Snow Likely 32 undefined 30 -1 93 93 SE 20 31 30.15 1021 1 1 N/A
3:34 pm 15:34 Windy with Snow Likely 31 -0.6 29 -1.7 92 92 ESE 22 35 30.15 1021 2 3 0.01 0.25
3:41 pm 15:41 Cloudy 31 -0.6 29 -1.7 92 92 ESE 20 31 30.15 1021 9 14 0.01 0.25
3:51 pm 15:51 Cloudy with Light Wintry Mix 30 -1 28 -2 93 93 ESE 17 28 30.16 1021 10 16 0.01 0.25
3:53 pm 15:53 Cloudy with Light Wintry Mix 31 -0.6 28 -2.2 89 89 ESE 20 31 30.10 1019 10 16 0.01 0.25
4:21 pm 16:21 Windy with Snow Likely 31 -0.6 28 -2.2 89 89 ESE 21 33 30.15 1021 2 3 0.01 0.25
4:27 pm 16:27 Cloudy with Light Snow 31 -0.6 29 -1.7 92 92 ESE 17 28 30.15 1021 2 3 0.02 0.51
4:36 pm 16:36 Windy with Snow Likely 31 -0.6 28 -2.2 89 89 ESE 22 35 30.15 1021 2 3 0.03 0.76
4:50 pm 16:50 Cloudy with Light Snow 30 -1 28 -2 93 93 ESE 17 28 30.15 1021 3 5 0.05 1.27
4:53 pm 16:53 Windy with Snow Likely 31 -0.6 28 -2.2 89 89 ESE 21 33 30.09 1019 3 5 0.05 1.27
4:56 pm 16:56 Cloudy with Light Snow 30 -1 28 -2 93 93 ESE 18 30 30.16 1021 3 4 N/A
5:06 pm 17:06 Windy with Snow Likely 31 -0.6 28 -2.2 89 89 ESE 20 31 30.15 1021 3 4 0.01 0.25
5:36 pm 17:36 Windy with Snow Likely 30 -1.1 28 -2.2 92 92 ESE 21 33 30.16 1021 2 3 0.05 1.27
5:39 pm 17:39 Windy with Snow Likely 30 -1.1 28 -2.2 92 92 ESE 20 31 30.15 1021 2 2 0.05 1.27
5:53 pm 17:53 Windy with Snow Likely 30 -1.1 28 -2.2 92 92 ESE 22 35 30.09 1019 1 2 0.07 1.78
6:10 pm 18:10 Windy with Snow Likely 30 -1.1 28 -2.2 92 92 ESE 22 35 30.14 1021 1 2 0.02 0.51
6:20 pm 18:20 Windy with Snow Likely 30 -1.1 28 -2.2 92 92 ESE 22 35 30.14 1021 1 1 0.04 1.02
6:23 pm 18:23 Windy with Snow Likely 30 -1.1 28 -2.2 92 92 ESE 21 33 30.15 1021 1 2 0.05 1.27
6:37 pm 18:37 Windy with Snow Likely 30 -1 28 -2 93 93 ESE 21 33 30.15 1021 2 3 N/A
6:49 pm 18:49 Windy with Snow Likely 30 -1 28 -2 93 93 ESE 23 37 30.15 1021 1 2 0.08 2.03
6:51 pm 18:51 Windy with Snow Likely 30 -1 28 -2 93 93 ESE 24 39 30.15 1021 1 1 0.08 2.03
6:53 pm 18:53 Windy with Snow Likely 30 -1.1 28 -2.2 92 92 ESE 22 35 30.09 1019 1 1 0.08 2.03
7:07 pm 19:07 Windy with Snow Likely 30 -1.1 28 -2.2 92 92 ESE 20 31 30.16 1021 2 2 0.03 0.76
7:11 pm 19:11 Cloudy with Light Snow 29 -1.7 28 -2.2 96 96 ESE 18 30 30.17 1022 2 3 0.03 0.76
7:17 pm 19:17 Cloudy with Light Snow 29 -1.7 28 -2.2 96 96 SE 18 30 30.17 1022 3 5 0.03 0.76
7:29 pm 19:29 Windy with Snow Likely 29 -1.7 28 -2.2 96 96 SE 20 31 30.17 1022 2 3 0.05 1.27
7:46 pm 19:46 Windy with Snow Likely 28 -2 28 -2 100 100 ESE 21 33 30.17 1022 2 3 N/A
7:53 pm 19:53 Windy with Snow Likely 29 -1.7 28 -2.2 96 96 ESE 20 31 30.10 1019 2 3 0.06 1.52
8:01 pm 20:01 Windy with Snow Likely 29 -1.7 28 -2.2 96 96 ESE 23 37 30.17 1022 1 2 0.00 0.00
8:13 pm 20:13 Mostly Cloudy with Light Snow 29 -1.7 28 -2.2 96 96 ESE 22 35 30.17 1022 1 1 0.01 0.25
8:24 pm 20:24 Mostly Cloudy with Snow 28 -2 28 -2 100 100 ESE 25 41 30.16 1021 1 1 N/A
8:53 pm 20:53 Mostly Cloudy with Snow 29 -1.7 28 -2.2 96 96 ESE 21 33 30.10 1019 1 1 0.03 0.76
9:09 pm 21:09 Mostly Cloudy with Snow 29 -1.7 28 -2.2 96 96 ESE 24 39 30.18 1022 0 0 0.03 0.76
9:53 pm 21:53 Mostly Cloudy with Snow 28 -2.2 27 -2.8 96 96 SE 22 35 30.11 1020 1 1 0.07 1.78
10:19 pm 22:19 Mostly Cloudy with Snow 28 -2.2 27 -2.8 96 96 SE 18 30 30.23 1024 0 0 0.03 0.76
10:37 pm 22:37 Mostly Cloudy with Snow 28 -2.2 27 -2.8 96 96 ESE 22 35 30.22 1023 1 1 0.05 1.27
10:53 pm 22:53 Mostly Cloudy with Snow 28 -2.2 27 -2.8 96 96 SE 21 33 30.13 1020 1 1 0.07 1.78
11:00 pm 23:00 Mostly Cloudy with Light Snow 28 -2.2 27 -2.8 96 96 SE 21 33 30.21 1023 1 2 0.01 0.25
11:07 pm 23:07 Windy with Snow Likely 28 -2.2 27 -2.8 96 96 SE 22 35 30.21 1023 2 2 0.01 0.25
11:31 pm 23:31 Windy with Snow Likely 28 -2.2 26 -3.3 92 92 ESE 23 37 30.21 1023 2 2 0.02 0.51
11:37 pm 23:37 Windy with Snow Likely 28 -2.2 26 -3.3 92 92 ESE 22 35 30.21 1023 3 5 0.02 0.51
11:53 pm 23:53 Windy with Snow Likely 28 -2.2 26 -3.3 92 92 ESE 21 33 30.13 1020 4 6 0.02 0.51

Powered by AerisWeather